THOR AGENA B DEB, 2153

Orbit data source: Space-Track

THOR AGENA B DEB, 2153 is space debris in LEO originally from a launch on Mon, 29 Nov 1965 UTC launched from the Air Force Western Test Range (AFWTR). Debris objects in space refer to the collection of defunct objects orbiting the Earth. Examples of debris include non-operational satellites, rocket bodies, and fragments generated from explosions, collisions, or faulty payload assembly.

Loading next visibility...
THOR AGENA B DEB details
Identifier
2153, 1965-098J
Orbit
LEO
Last TLE update12 hours ago
Origin
Flag of USGSFC (US)
ManufacturerUnknown
MissionSpacecraft
Bus & MotorUnknown
Mass~1 kg wet, ~1 kg dry
Launch date (UTC)
1965-11-29 (59 years ago)
Launch vehicleUnknown
Launch site
Air Force Western Test Range (AFWTR)
Object type
Payload
Rocket body
Debris
Shape & HBRAnn Cyl, 0.2 m
Radar Cross Section0.031 m², Small (<0.1 m²)

Expand to show TLE details & history

TLE from 12 hours ago
0 THOR AGENA B DEB
1  2153U 65098J   24356.03576003  .00001742  00000-0  54874-3 0  9998
2  2153  79.7410 185.8265 1286199  85.6379  69.0362 12.37903163619489
Epoch: 2024-12-21T00:51Z
Definitive object data (Epoch: 2024-12-21T00:51:29.666Z)
Latitude10.6567°
Longitude-99.08168°
Altitude1,275.068 km
Speed7.329 km/s
True Right ascension00h 15m 32s
True Declination10° 35' 55"
Sunlit
Object was in daylight at TLE epoch
Visualization TLE readout
Latitude-79.53713°
Longitude-20.17851°
Altitude2,557.065 km
Speed6.235 km/s
Apparent Right ascension01h 17m 35s
Apparent Declination-67° 09' 34"
Sunlit
Object is in daylight
Visualization observer readout
Local Sidereal Time12:08:30
Azimuth193.803° SSW
Elevation-61.122°
Doppler factor1
Orbital elements
Apogee altitude2,527.869 km
Perigee altitude497.975 km
Semi-major axis7,891.059 km
Eccentricity0.1286199
Inclination79.741°
RAAN185.8265°
Arg. of periapsis85.6379°
True anomaly83.48155°
Mean anomaly69.0362°
Eccentric anomaly76.19263°
Mean motion3.09628 °/min
BSTAR0.00054874
Orbital period116.27 mins
Loading maneuver chart data...
Loading historical data...
Loading historical data...
Loading historical data...
Loading historical data...
Loading historical data...
Loading historical data...
Loading historical data...

THOR AGENA B DEB Visibility forecast

Observer location: undefined°, undefined

Span
Click to sort rows by Start time (UTC) header in descending order
Start Az.
Max El. time (UTC)
Max El. Az.
Max El.
End time (UTC)
End Az.
9 mins2024-12-21 13:46:36.075Z188.501° SSW2024-12-21 13:52:36.075Z30.828° NE44.625°2024-12-21 13:55:36.075Z12.387° NNE
8 mins2024-12-21 23:56:36.075Z25.886° NE2024-12-21 23:58:36.075Z66.89° ENE31.35°2024-12-22 00:04:36.075Z143.017° SSE
6 mins2024-12-22 01:54:36.075Z291.747° WNW2024-12-22 01:56:36.075Z263.352° W19.186°2024-12-22 02:00:36.075Z222.815° SW
|